| time (UTC) | temp C | wind direction | speed KPH | gust KPH | rain 1hr cm | rain 24hr cm | rain mn cm | humidity % | barometer mb |
| 20260505101548 | 13 | 257 | 0.0 | 1.6 | 0.00 | 0.00 | 0.00 | 78 | 1010.8 |
| 20260505100048 | 13 | 241 | 0.0 | 3.2 | 0.00 | 0.00 | 0.00 | 78 | 1010.3 |
| 20260505094549 | 13 | 0 | 0.0 | 1.6 | 0.00 | 0.00 | 0.00 | 76 | 1010.2 |
| 20260505093049 | 14 | 0 | 0.0 | 1.6 | 0.00 | 0.00 | 0.00 | 75 | 1010.1 |
| 20260505091603 | 14 | 217 | 0.0 | 4.8 | 0.00 | 0.00 | 0.00 | 75 | 1010.0 |
| 20260505090104 | 14 | 0 | 0.0 | 3.2 | 0.00 | 0.00 | 0.00 | 75 | 1010.0 |
| 20260505084602 | 13 | 0 | 0.0 | 6.4 | 0.00 | 0.00 | 0.00 | 77 | 1010.0 |
| 20260505083107 | 13 | 0 | 0.0 | 0.0 | 0.00 | 0.00 | 0.00 | 77 | 1010.1 |
| 20260505081603 | 13 | 0 | 0.0 | 1.6 | 0.00 | 0.00 | 0.00 | 75 | 1010.1 |
| 20260505080100 | 13 | 0 | 0.0 | 1.6 | 0.00 | 0.00 | 0.00 | 74 | 1010.1 |
| 20260505074552 | 14 | 0 | 0.0 | 1.6 | 0.00 | 0.00 | 0.00 | 73 | 1010.0 |
| 20260505073053 | 14 | 0 | 0.0 | 4.8 | 0.00 | 0.00 | 0.00 | 72 | 1010.0 |
| 20260505071554 | 14 | 0 | 0.0 | 3.2 | 0.00 | 0.00 | 0.00 | 73 | 1009.8 |
| 20260505070050 | 14 | 0 | 0.0 | 6.4 | 0.00 | 0.00 | 0.00 | 73 | 1009.8 |
| 20260505064547 | 13 | 0 | 0.0 | 4.8 | 0.00 | 0.00 | 0.00 | 74 | 1009.9 |
| 20260505063051 | 13 | 0 | 0.0 | 1.6 | 0.00 | 0.00 | 0.00 | 73 | 1010.0 |
| 20260505061550 | 13 | 0 | 0.0 | 0.0 | 0.00 | 0.00 | 0.00 | 72 | 1010.1 |
| 20260505054554 | 13 | 0 | 0.0 | 0.0 | 0.00 | 0.00 | 0.00 | 71 | 1010.2 |
| 20260505053052 | 14 | 0 | 0.0 | 1.6 | 0.00 | 0.00 | 0.00 | 69 | 1010.2 |
| 20260505051543 | 14 | 174 | 0.0 | 1.6 | 0.00 | 0.00 | 0.00 | 69 | 1010.2 |
| 20260505041600 | 15 | 203 | 0.0 | 6.4 | 0.00 | 0.00 | 0.00 | 66 | 1010.5 |
| 20260505040049 | 15 | 177 | 1.6 | 6.4 | 0.00 | 0.00 | 0.00 | 66 | 1010.4 |
| 20260505034546 | 15 | 0 | 1.6 | 9.7 | 0.00 | 0.00 | 0.00 | 66 | 1010.4 |
| 20260505033054 | 15 | 153 | 0.0 | 3.2 | 0.00 | 0.00 | 0.00 | 66 | 1010.4 |
| 20260505031548 | 15 | 186 | 0.0 | 4.8 | 0.00 | 0.00 | 0.00 | 65 | 1010.5 |
| 20260505030109 | 15 | 261 | 1.6 | 8.0 | 0.00 | 0.00 | 0.00 | 65 | 1010.6 |
| 20260505024549 | 15 | 192 | 0.0 | 3.2 | 0.00 | 0.00 | 0.00 | 64 | 1010.7 |
| 20260505023052 | 15 | 0 | 0.0 | 3.2 | 0.00 | 0.00 | 0.00 | 63 | 1010.7 |
| 20260505021552 | 15 | 181 | 0.0 | 8.0 | 0.00 | 0.00 | 0.00 | 62 | 1010.8 |
| 20260505020051 | 16 | 226 | 1.6 | 4.8 | 0.00 | 0.00 | 0.00 | 60 | 1010.8 |
| 20260505014607 | 16 | 107 | 0.0 | 9.7 | 0.00 | 0.00 | 0.00 | 58 | 1010.7 |
| 20260505013055 | 16 | 0 | 0.0 | 4.8 | 0.00 | 0.00 | 0.00 | 57 | 1010.7 |
| 20260505011558 | 17 | 0 | 0.0 | 6.4 | 0.00 | 0.00 | 0.00 | 56 | 1010.4 |
| 20260505010058 | 17 | 138 | 0.0 | 4.8 | 0.00 | 0.00 | 0.00 | 54 | 1010.3 |
| 20260505004554 | 17 | 0 | 0.0 | 1.6 | 0.00 | 0.00 | 0.00 | 51 | 1010.1 |
| 20260505003101 | 17 | 0 | 0.0 | 1.6 | 0.00 | 0.00 | 0.00 | 47 | 1009.9 |
| 20260505001547 | 18 | 0 | 0.0 | 1.6 | 0.00 | 0.00 | 0.00 | 44 | 1009.8 |
| 20260505000053 | 19 | 215 | 0.0 | 3.2 | 0.00 | 0.00 | 0.00 | 43 | 1009.4 |
| 20260504234549 | 20 | 0 | 0.0 | 3.2 | 0.00 | 0.00 | 0.00 | 41 | 1009.3 |
| 20260504233051 | 20 | 0 | 0.0 | 4.8 | 0.00 | 0.00 | 0.00 | 40 | 1009.2 |
| 20260504231540 | 20 | 0 | 0.0 | 4.8 | 0.00 | 0.00 | 0.00 | 39 | 1009.1 |
| 20260504230043 | 21 | 120 | 0.0 | 6.4 | 0.00 | 0.00 | 0.00 | 39 | 1009.0 |
| 20260504224545 | 21 | 249 | 0.0 | 6.4 | 0.00 | 0.00 | 0.00 | 37 | 1009.1 |
| 20260504223059 | 21 | 0 | 0.0 | 9.7 | 0.00 | 0.00 | 0.00 | 37 | 1009.0 |
| 20260504221544 | 21 | 301 | 0.0 | 4.8 | 0.00 | 0.00 | 0.00 | 36 | 1009.1 |
| 20260504220045 | 21 | 281 | 1.6 | 8.0 | 0.00 | 0.00 | 0.00 | 36 | 1009.2 |
| 20260504214542 | 22 | 229 | 4.8 | 9.7 | 0.00 | 0.00 | 0.00 | 35 | 1009.2 |
| 20260504213049 | 22 | 205 | 3.2 | 11.3 | 0.00 | 0.00 | 0.00 | 35 | 1009.3 |
| 20260504211622 | 22 | 0 | 3.2 | 9.7 | 0.00 | 0.00 | 0.00 | 34 | 1009.4 |
| 20260504210051 | 22 | 238 | 1.6 | 11.3 | 0.00 | 0.00 | 0.00 | 35 | 1009.3 |
| 20260504204543 | 22 | 240 | 3.2 | 20.9 | 0.00 | 0.00 | 0.00 | 34 | 1009.4 |
| 20260504203044 | 22 | 290 | 1.6 | 14.5 | 0.00 | 0.00 | 0.00 | 35 | 1009.2 |
| 20260504201542 | 22 | 176 | 1.6 | 9.7 | 0.00 | 0.00 | 0.00 | 35 | 1009.2 |
| 20260504200052 | 22 | 184 | 3.2 | 8.0 | 0.00 | 0.00 | 0.00 | 33 | 1009.3 |
| 20260504194551 | 22 | 199 | 4.8 | 14.5 | 0.00 | 0.00 | 0.00 | 34 | 1009.4 |
| 20260504193056 | 22 | 290 | 3.2 | 9.7 | 0.00 | 0.00 | 0.00 | 33 | 1009.6 |
| 20260504191606 | 22 | 271 | 1.6 | 11.3 | 0.00 | 0.00 | 0.00 | 37 | 1009.7 |
| 20260504190054 | 22 | 220 | 1.6 | 8.0 | 0.00 | 0.00 | 0.00 | 35 | 1010.0 |
| 20260504184552 | 22 | 226 | 3.2 | 11.3 | 0.00 | 0.00 | 0.00 | 37 | 1010.4 |
| 20260504183049 | 22 | 80 | 1.6 | 6.4 | 0.00 | 0.00 | 0.00 | 35 | 1010.6 |
| 20260504181548 | 22 | 249 | 3.2 | 11.3 | 0.00 | 0.00 | 0.00 | 37 | 1010.9 |
| 20260504180046 | 22 | 252 | 3.2 | 9.7 | 0.00 | 0.00 | 0.00 | 38 | 1011.1 |
| 20260504174548 | 22 | 262 | 4.8 | 16.1 | 0.00 | 0.00 | 0.00 | 35 | 1011.2 |
| 20260504173053 | 21 | 159 | 3.2 | 11.3 | 0.00 | 0.00 | 0.00 | 38 | 1011.2 |
| 20260504171546 | 21 | 252 | 1.6 | 9.7 | 0.00 | 0.00 | 0.00 | 37 | 1011.5 |